Nashua, NH

1:31 AM EDT on October 21, 2019 (GMT -0400)
Boire

Weather History for KASH - August, 2019

Change the Weather History Date:

Saturday, August 24, 2019

  Actual Average Record
Temperature  
Mean Temperature 62 °F -  
Max Temperature 75 °F 77 °F 91 °F (1998)
Min Temperature 52 °F 53 °F 37 °F (1971)
Degree Days  
Heating Degree Days 2    
Growing Degree Days 12 (Base 50)    
Moisture  
Dew Point 54 °F    
Average Humidity 74    
Maximum Humidity 100    
Minimum Humidity 51    
Precipitation  
Precipitation 0.00 in - - ()
Sea Level Pressure  
Sea Level Pressure 30.20 in    
Wind  
Wind Speed 4 mph ()    
Max Wind Speed 10 mph    
Max Gust Speed -    
Visibility 10.0 miles    
Events      
Averages and records for this station are not official NWS values.
T = Trace of Precipitation, MM = Missing Value Source: Averaged Metar Reports

Daily Weather History Graph

Daily Weather History Graph

Search for Another Location

Airport or City:

Astronomy

Aug. 24, 2019 Rise Set
Actual Time 6:01 AM EDT 7:34 PM EDT
Civil Twilight 5:32 AM EDT 8:03 PM EDT
Nautical Twilight 4:56 AM EDT 8:39 PM EDT
Astronomical Twilight 4:17 AM EDT 9:17 PM EDT
Moon No Moon Rise 2:50 PM EDT (8/24)
Length of Visible Light 14h 31m
Length of Day
13h 32m
Last Quarter, 39% of the Moon is Illuminated
Aug 24
Last Quarter
Aug 30
New
Sep 5
First Quarter
Sep 14
Full
Sep 21
Last Quarter

Hourly Weather History & Observations

Time (EDT) Temp. Dew Point Humidity Pressure Visibility Wind Dir Wind Speed Gust Speed Precip Events Conditions
12:56 AM 57.0 °F 53.1 °F 87% 30.09 in 10.0 mi WNW 4.6 mph - N/A   Clear
1:56 AM 57.9 °F 52.0 °F 81% 30.10 in 10.0 mi NW 5.8 mph - N/A   Clear
2:56 AM 55.9 °F 52.0 °F 87% 30.11 in 10.0 mi WNW 5.8 mph - N/A   Clear
3:56 AM 53.1 °F 51.1 °F 93% 30.11 in 10.0 mi NW 4.6 mph - N/A   Clear
4:56 AM 52.0 °F 51.1 °F 97% 30.12 in 10.0 mi Calm Calm - N/A   Clear
5:56 AM 52.0 °F 51.1 °F 97% 30.13 in 10.0 mi Calm Calm - N/A   Clear
6:56 AM 52.0 °F 52.0 °F 100% 30.15 in 10.0 mi NW 4.6 mph - N/A   Clear
7:56 AM 59.0 °F 52.0 °F 78% 30.17 in 10.0 mi NW 5.8 mph - N/A   Clear
8:56 AM 63.0 °F 52.0 °F 67% 30.18 in 10.0 mi North 9.2 mph - N/A   Clear
9:56 AM 66.9 °F 53.1 °F 61% 30.19 in 10.0 mi NNE 8.1 mph - N/A   Clear
10:56 AM 70.0 °F 53.1 °F 55% 30.19 in 10.0 mi Variable 5.8 mph - N/A   Partly Cloudy
11:56 AM 71.1 °F 52.0 °F 51% 30.19 in 10.0 mi Variable 6.9 mph - N/A   Mostly Cloudy
12:56 PM 72.0 °F 54.0 °F 53% 30.19 in 10.0 mi Variable 5.8 mph - N/A   Mostly Cloudy
1:56 PM 73.0 °F 54.0 °F 51% 30.20 in 10.0 mi Variable 5.8 mph - N/A   Mostly Cloudy
2:56 PM 73.0 °F 55.9 °F 55% 30.20 in 10.0 mi Variable 4.6 mph - N/A   Mostly Cloudy
3:56 PM 73.9 °F 57.0 °F 55% 30.21 in 10.0 mi Variable 6.9 mph - N/A   Mostly Cloudy
4:56 PM 73.0 °F 55.9 °F 55% 30.22 in 10.0 mi SE 6.9 mph - N/A   Mostly Cloudy
5:56 PM 72.0 °F 57.0 °F 59% 30.23 in 10.0 mi ESE 6.9 mph - N/A   Scattered Clouds
6:56 PM 70.0 °F 57.9 °F 65% 30.25 in 10.0 mi East 10.4 mph - N/A   Scattered Clouds
7:56 PM 66.9 °F 57.9 °F 73% 30.27 in 10.0 mi ESE 5.8 mph - N/A   Mostly Cloudy
8:56 PM 64.0 °F 57.0 °F 78% 30.30 in 10.0 mi Calm Calm - N/A   Mostly Cloudy
9:56 PM 60.1 °F 57.9 °F 93% 30.32 in 10.0 mi Calm Calm - N/A   Partly Cloudy
10:56 PM 62.1 °F 59.0 °F 90% 30.34 in 10.0 mi NW 3.5 mph - N/A   Overcast
11:56 PM 59.0 °F 57.9 °F 96% 30.34 in 10.0 mi WNW 3.5 mph - N/A   Clear